Location: Castellare
(42.4669°N, 9.4728°E)
Time: 10:30:50
(UTC+00:00)

STARLINK-1074 - Pass Details

Date: 17 February 2020
Orbit: 374 x 385 km, 53.0° (Epoch: 09 April)

Event Time Altitude Azimuth Distance (km) Brightness Sun altitude
Exits shadow 05:17:37 15° 241° (WSW) 1,162 4.8 -11.6°
Maximum altitude 05:20:09 70° 325° (NW) 412 2.8 -11.1°
Drops below altitude 10° 05:23:18 10° 50° (NE) 1,409 6.4 -10.5°
Sets 05:25:21 0° 52° (NE) 2,262 7.5 -10.2°
